Location: Elliott Corner
(37.4627°N, 119.7746°W)
Time: 23:00:31
(UTC+00:00)

DELTA 2 R/B (1) - Pass Details

Date: 10 September 2024
Orbit: 789 x 800 km, 39.6° (Epoch: 13 October)

Event Time Altitude Azimuth Distance (km) Brightness Sun altitude
Exits shadow 12:12:31 26° 274° (W) 1,508 4.5 -17.2°
Maximum altitude 12:15:40 73° 354° (N) 828 3.7 -16.6°
Drops below altitude 10° 12:21:13 10° 80° (E) 2,350 7.4 -15.6°
Sets 12:23:42 0° 82° (E) 3,278 8.5 -15.1°
